Location: Ostrava
(49.8330°N, 18.2830°E)
Time: 19:02:20
(UTC+01:00)

Lacrosse 5 - Visible Passes

Search period start: 06 December 2016 00:00
Search period end: 16 December 2016 00:00
Orbit: 713 x 726 km, 57.0° (Epoch: 24 November)

Date Brightness Start Highest point End Pass type
(mag) Time Alt. Az. Time Alt. Az. Time Alt. Az.
06 Dec 4.7 04:10:58 10° SSE 04:13:25 14° ESE 04:15:52 10° E visible
06 Dec 2.4 05:50:29 10° SW 05:55:30 61° SE 06:00:33 10° ENE visible
07 Dec 3.2 04:57:45 10° SSW 05:02:26 38° SE 05:07:09 10° ENE visible
07 Dec 1.9 06:40:11 10° WSW 06:45:16 65° NNW 06:50:21 10° NE visible
08 Dec 3.9 04:07:42 19° SSE 04:09:31 23° SE 04:13:29 10° ENE visible
08 Dec 1.8 05:46:58 11° SW 05:51:58 90° SSE 05:57:06 10° ENE visible
09 Dec 4.6 03:17:26 13° ESE 03:17:26 13° ESE 03:19:06 10° E visible
09 Dec 2.3 04:56:41 33° SSW 04:58:47 60° SE 05:03:49 10° ENE visible
09 Dec 2.2 06:36:57 10° W 06:41:55 49° NNW 06:46:54 10° NE visible
10 Dec 3.2 04:06:09 37° ESE 04:06:09 37° ESE 04:10:25 10° ENE visible
10 Dec 1.9 05:45:23 23° WSW 05:48:32 65° NNW 05:53:37 10° NE visible
11 Dec 4.6 03:15:26 16° E 03:15:26 16° E 03:16:45 10° ENE visible
11 Dec 1.8 04:54:39 71° SW 04:55:15 89° SE 05:00:23 10° ENE visible
11 Dec 2.4 06:33:53 10° W 06:38:40 41° NNW 06:43:30 10° ENE visible
12 Dec 3.2 04:03:48 38° ENE 04:03:48 38° ENE 04:07:06 10° ENE visible
12 Dec 2.2 05:43:01 30° WNW 05:45:12 50° NNW 05:50:10 10° NE visible
13 Dec 4.6 03:12:50 14° ENE 03:12:50 14° ENE 03:13:41 10° ENE visible
13 Dec 1.9 04:52:03 65° N 04:52:03 65° N 04:56:54 10° NE visible
13 Dec 2.6 06:31:15 13° WNW 06:35:27 37° N 06:40:13 10° ENE visible
14 Dec 3.5 04:01:00 31° ENE 04:01:00 31° ENE 04:03:39 10° ENE visible
14 Dec 2.5 05:40:12 31° WNW 05:41:56 41° NNW 05:46:47 10° ENE visible
15 Dec 4.8 03:09:53 13° ENE 03:09:53 13° ENE 03:10:22 10° ENE visible
15 Dec 2.4 04:49:06 47° N 04:49:06 47° N 04:53:27 10° NE visible
15 Dec 2.7 06:28:18 14° WNW 06:32:16 37° N 06:37:00 10° ENE visible
